Probability
32 39 35 29 32 23 29 32 29 29 26 19 19 19 16 16 13 3 10 10 6 3 3 3 3 3 0 0 0 0 0 0 0 0 0 0 0 0 0 0 0 0 0
26 29 32 26 23 19 19 29 32 29 23 16 13 16 19 10 6 10 13 10 6 3 3 3 3 0 0 0 0 0 0 0 0 0 0 0 0 0 0 0 0 0 0
29 29 26 23 23 16 16 23 26 19 16 13 13 13 6 3 0 6 10 10 6 6 3 3 0 0 0 0 0 0 0 0 0 0 0 0 0 0 0 0 0 0 0
26 26 19 16 16 10 13 16 23 16 13 10 16 10 6 3 6 6 6 6 6 6 3 3 0 0 0 0 0 0 0 0 0 0 0 0 0 0 0 0 0 0 0
26 23 19 16 13 16 16 13 16 10 13 3 3 3 3 3 3 6 6 6 6 3 3 0 0 0 0 0 0 0 0 0 0 0 0 0 0 0 0 0 0 0 0
23 16 16 13 16 16 19 10 6 13 6 3 3 3 0 0 6 6 6 6 6 0 0 0 0 0 0 0 0 0 0 0 0 0 0 0 0 0 0 0 0 0 0
16 19 13 19 19 16 19 16 16 13 10 10 6 3 3 3 3 3 3 3 3 0 0 0 0 0 0 0 0 0 0 0 0 0 0 0 0 0 0 0 0 0 0
16 16 16 23 23 23 19 19 19 13 10 10 6 3 3 3 3 3 3 3 3 3 0 0 0 0 0 0 0 0 0 0 0 0 0 0 0 0 0 0 0 0 0
16 16 19 19 19 23 23 23 23 19 10 10 6 6 3 3 3 3 3 3 3 0 0 0 0 0 0 0 0 0 0 0 0 0 0 0 0 0 0 0 0 0 0
6 16 23 19 23 19 23 23 26 19 16 10 6 6 6 3 3 3 3 3 3 0 0 0 0 0 0 0 0 0 0 0 0 0 0 0 0 0 0 0 0 0 0
10 19 19 19 16 19 23 23 26 19 19 13 10 10 10 6 3 3 3 3 3 0 0 0 0 0 0 0 0 0 0 0 0 0 0 0 0 0 0 0 0 0 0
6 10 16 16 19 26 23 23 23 23 26 19 10 10 6 6 3 3 3 3 3 3 0 0 0 0 0 0 0 0 0 0 0 0 0 0 0 0 0 0 0 0 0
6 13 13 13 23 26 26 23 23 29 23 19 19 13 10 6 6 3 3 3 3 3 3 0 0 0 0 0 0 0 0 0 0 0 0 0 0 0 0 0 0 0 0
6 13 16 16 29 26 26 26 26 29 23 19 19 13 13 13 3 3 3 3 3 3 3 3 0 0 0 0 0 0 0 0 0 0 0 0 0 0 0 0 0 0 0
0 10 16 19 23 26 26 26 23 26 26 19 19 19 13 13 3 3 6 3 3 3 3 3 0 0 0 0 0 0 0 0 0 0 0 0 0 0 0 0 0 0 0
0 10 6 13 16 19 19 23 26 29 23 23 23 23 13 19 13 10 6 6 3 3 3 0 3 3 3 0 0 0 0 0 0 0 0 0 0 0 0 0 0 0 0
0 13 6 10 16 13 19 26 29 26 26 23 26 23 19 19 16 16 10 10 6 3 3 3 3 3 3 0 0 0 0 0 0 0 0 0 0 0 0 0 0 0 0
0 10 10 6 10 10 26 26 29 32 29 32 32 32 19 23 16 16 16 13 6 6 3 3 3 3 3 0 0 0 0 0 0 0 0 0 0 0 0 0 0 0 0
3 6 10 6 13 10 16 16 13 23 29 26 29 35 26 23 13 13 6 3 3 3 3 3 3 3 0 0 0 0 0 0 0 0 0 0 0 0 0 0 0 0 0
6 13 16 16 6 3 6 3 3 10 13 16 19 19 13 16 13 10 3 0 0 0 0 0 0 0 0 0 0 0 0 0 0 0 0 0 0 0 0 0 0 0 0
10 10 10 13 13 10 13 3 10 13 13 13 10 10 6 10 16 6 3 0 0 0 0 0 0 0 0 0 0 0 0 0 0 0 0 0 0 0 0 0 0 0 0
6 10 6 16 10 10 3 3 3 3 10 16 10 10 3 3 6 3 0 0 0 0 0 0 0 0 0 0 0 0 0 0 0 0 0 0 0 0 0 0 0 0 0
3 0 0 0 10 6 3 3 3 3 3 10 6 6 3 0 3 3 0 0 0 0 0 0 0 0 0 0 0 0 0 0 0 0 0 0 0 0 0 0 0 0 0
3 6 6 3 0 3 3 3 3 6 0 10 10 6 3 3 3 3 0 0 0 0 0 0 0 0 0 0 0 0 0 0 0 0 0 0 0 0 0 0 0 0 0
6 6 3 10 6 0 0 6 6 3 0 6 6 6 6 3 0 0 0 0 0 0 0 0 0 0 0 0 0 0 0 0 0 0 0 0 0 0 0 0 0 0 0
3 6 6 0 3 0 0 0 0 0 0 3 3 6 6 3 0 0 0 0 0 0 0 0 0 0 0 0 0 0 0 0 0 0 0 0 0 0 0 0 0 0 0
Height
5839 5835 5832 5830 5829 5832 5835 5839 5842 5847 5851 5854 5857 5861 5864 5867 5869 5871 5874 5876 5877 5879 5880 5881 5882 5883 5884 5884 5884 5885 5885 5885 5885 5885 5885 5885 5885 5885 5884 5884 5883 5883 5882
5836 5833 5829 5827 5828 5829 5831 5836 5839 5842 5847 5851 5855 5858 5862 5865 5867 5869 5872 5874 5876 5877 5878 5880 5881 5882 5883 5883 5884 5884 5885 5885 5885 5885 5885 5884 5885 5884 5883 5883 5882 5882 5881
5835 5832 5828 5827 5828 5829 5832 5835 5837 5840 5845 5849 5853 5857 5860 5863 5866 5868 5870 5872 5874 5876 5877 5878 5880 5881 5882 5883 5883 5883 5884 5884 5884 5884 5884 5884 5883 5883 5882 5881 5881 5880 5879
5834 5832 5829 5828 5829 5830 5831 5834 5837 5840 5843 5847 5851 5855 5859 5862 5864 5867 5869 5871 5872 5874 5876 5877 5879 5880 5881 5882 5882 5883 5883 5883 5883 5883 5883 5883 5882 5882 5881 5880 5879 5878 5877
5834 5832 5830 5829 5829 5830 5832 5834 5837 5840 5843 5847 5850 5854 5858 5861 5863 5865 5867 5869 5871 5873 5875 5876 5878 5879 5880 5881 5881 5882 5882 5882 5882 5882 5882 5881 5881 5880 5880 5879 5878 5876 5875
5834 5832 5831 5830 5830 5831 5833 5835 5837 5840 5843 5847 5850 5853 5856 5859 5861 5864 5866 5868 5870 5872 5874 5875 5877 5878 5879 5880 5880 5880 5881 5881 5880 5880 5880 5880 5879 5878 5878 5877 5876 5874 5873
5833 5832 5832 5831 5832 5832 5833 5835 5837 5840 5843 5846 5849 5853 5856 5858 5860 5863 5864 5866 5869 5871 5873 5874 5876 5877 5878 5878 5878 5879 5879 5879 5878 5878 5878 5878 5877 5876 5875 5874 5873 5872 5870
5833 5833 5833 5833 5833 5833 5834 5836 5837 5839 5843 5846 5849 5852 5855 5857 5859 5862 5863 5865 5868 5870 5871 5873 5874 5875 5876 5876 5876 5876 5876 5876 5876 5876 5875 5875 5874 5873 5872 5871 5870 5868 5867
5833 5833 5833 5834 5834 5834 5835 5837 5838 5840 5843 5845 5848 5851 5854 5856 5858 5860 5862 5864 5866 5868 5870 5871 5872 5873 5873 5874 5874 5874 5874 5874 5873 5873 5872 5872 5871 5870 5869 5867 5866 5865 5863
5833 5833 5834 5834 5835 5835 5836 5837 5839 5840 5842 5845 5847 5850 5852 5854 5856 5858 5860 5863 5864 5866 5867 5868 5869 5870 5870 5871 5871 5871 5871 5871 5870 5869 5869 5868 5867 5865 5864 5863 5862 5860 5859
5832 5832 5833 5834 5834 5835 5836 5837 5839 5840 5842 5844 5847 5849 5851 5853 5855 5857 5858 5860 5862 5864 5865 5866 5866 5867 5867 5867 5867 5867 5867 5867 5866 5865 5864 5863 5862 5861 5859 5858 5856 5855 5853
5831 5831 5832 5833 5833 5835 5836 5837 5838 5840 5842 5844 5846 5847 5849 5851 5853 5854 5856 5858 5860 5861 5862 5862 5863 5863 5863 5863 5863 5863 5862 5862 5861 5860 5859 5858 5856 5855 5854 5852 5851 5849 5847
5829 5830 5831 5831 5832 5833 5835 5836 5837 5839 5840 5842 5844 5845 5847 5848 5850 5852 5853 5855 5856 5857 5858 5858 5859 5859 5859 5858 5858 5858 5857 5856 5855 5854 5853 5852 5851 5849 5847 5846 5844 5842 5840
5827 5828 5829 5830 5830 5831 5833 5834 5835 5837 5838 5839 5841 5843 5844 5846 5847 5848 5850 5851 5852 5853 5853 5853 5853 5853 5853 5853 5852 5852 5851 5850 5849 5848 5847 5845 5844 5842 5840 5838 5837 5835 5833
5824 5825 5826 5827 5828 5829 5830 5832 5833 5834 5835 5836 5838 5839 5841 5842 5843 5844 5845 5846 5847 5847 5847 5847 5847 5847 5847 5846 5846 5845 5844 5843 5842 5841 5839 5838 5836 5834 5833 5831 5829 5827 5825
5821 5822 5822 5823 5824 5825 5827 5828 5829 5831 5832 5833 5834 5836 5837 5838 5839 5839 5840 5841 5841 5841 5841 5841 5840 5840 5839 5839 5838 5838 5837 5835 5834 5833 5831 5830 5828 5826 5824 5822 5821 5819 5817
5817 5818 5819 5819 5820 5822 5823 5824 5825 5826 5828 5829 5830 5831 5832 5832 5833 5834 5834 5834 5834 5834 5834 5833 5833 5833 5832 5831 5830 5829 5828 5827 5826 5824 5822 5821 5819 5817 5815 5813 5811 5809 5807
5812 5813 5814 5815 5816 5818 5819 5820 5821 5822 5823 5824 5825 5825 5826 5826 5826 5826 5826 5826 5826 5827 5826 5825 5825 5824 5823 5822 5822 5820 5819 5818 5816 5815 5813 5811 5809 5807 5806 5804 5801 5799 5797
5806 5807 5809 5810 5811 5812 5814 5815 5816 5817 5818 5818 5819 5819 5819 5819 5818 5819 5819 5819 5819 5818 5817 5817 5816 5815 5814 5813 5812 5811 5810 5808 5807 5805 5803 5801 5799 5797 5795 5793 5791 5789 5786
5801 5802 5803 5804 5805 5806 5807 5809 5810 5810 5811 5811 5812 5812 5812 5812 5811 5811 5811 5811 5810 5810 5809 5809 5807 5806 5805 5804 5803 5801 5799 5798 5796 5794 5792 5790 5788 5786 5784 5781 5779 5777 5775
5795 5796 5797 5799 5800 5800 5801 5802 5803 5804 5804 5804 5804 5804 5804 5804 5804 5803 5803 5803 5802 5801 5801 5800 5798 5797 5796 5794 5793 5791 5790 5788 5786 5783 5781 5779 5776 5774 5772 5769 5767 5765 5762
5789 5790 5791 5792 5793 5793 5794 5795 5796 5796 5796 5797 5796 5797 5796 5796 5795 5795 5795 5794 5793 5792 5791 5790 5788 5787 5785 5784 5782 5780 5779 5777 5774 5772 5770 5767 5764 5762 5759 5757 5754 5751 5749
5783 5784 5785 5786 5786 5787 5788 5788 5789 5789 5788 5788 5788 5788 5787 5788 5787 5787 5786 5785 5784 5782 5781 5780 5778 5777 5775 5773 5771 5769 5766 5764 5762 5760 5757 5754 5752 5749 5746 5743 5740 5737 5734
5777 5778 5779 5779 5780 5780 5780 5781 5780 5779 5780 5780 5779 5778 5778 5778 5778 5777 5776 5775 5773 5771 5770 5768 5767 5765 5763 5761 5759 5756 5754 5751 5749 5746 5744 5741 5738 5734 5731 5728 5724 5721 5718
5770 5771 5772 5772 5772 5772 5772 5772 5772 5771 5771 5770 5770 5769 5768 5768 5767 5767 5766 5764 5763 5761 5759 5757 5755 5753 5751 5748 5746 5743 5741 5738 5735 5732 5729 5726 5722 5719 5715 5712 5708 5704 5701
5763 5764 5765 5766 5766 5765 5765 5764 5764 5763 5762 5762 5761 5761 5760 5759 5758 5757 5755 5753 5751 5749 5747 5745 5743 5740 5738 5735 5732 5729 5726 5723 5720 5717 5713 5710 5706 5703 5699 5695 5691 5687 5684
Wind_Speed
15 13 11 9 10 13 16 16 19 19 17 17 17 17 16 14 13 12 11 12 11 10 9 8 7 6 6 5 5 4 2 2 1 1 1 2 2 2 3 4 4 5 5
12 11 9 6 7 11 13 14 15 17 17 17 17 17 16 14 13 13 12 12 11 10 9 9 8 7 6 6 5 4 3 2 2 1 1 1 2 3 3 4 4 4 5
10 9 6 3 5 9 11 12 12 16 17 18 18 17 15 14 13 13 12 12 12 11 10 10 9 8 7 6 5 5 4 2 1 1 0 1 2 4 4 5 5 5 6
9 7 3 2 3 6 8 10 12 14 16 17 17 16 15 15 14 14 13 13 13 12 11 11 10 8 7 6 6 5 4 2 1 1 1 1 2 3 4 5 6 7 7
8 6 3 1 4 5 7 11 12 14 15 17 17 17 16 15 13 15 14 13 13 13 12 11 10 9 7 7 6 5 3 2 1 1 1 2 3 4 5 5 6 7 8
7 6 4 2 4 7 8 11 12 14 15 16 17 16 16 14 14 15 14 14 13 13 12 11 9 8 7 6 5 4 3 2 2 2 3 4 5 5 6 7 7 8 9
6 4 4 3 4 6 7 10 12 13 14 15 16 16 15 15 15 14 14 14 13 13 12 10 9 8 7 6 5 5 4 4 4 4 5 5 6 6 7 8 9 9 10
5 4 3 3 4 5 6 8 10 13 14 15 16 16 15 14 15 14 14 13 13 13 12 10 9 8 7 6 6 6 5 5 5 6 6 7 8 8 9 10 11 11 12
3 3 3 3 3 5 6 7 10 12 13 14 16 15 15 15 15 14 13 13 14 13 12 10 10 9 8 8 8 7 7 7 7 8 9 10 10 11 12 12 13 13 14
1 1 2 2 3 5 5 6 9 11 12 13 14 14 15 15 15 15 14 14 14 13 11 11 10 10 9 9 9 9 9 10 11 11 12 13 14 14 14 15 15 16 16
1 1 2 3 4 5 6 6 8 10 11 12 12 13 14 15 15 15 15 14 14 13 12 12 11 11 11 11 12 12 13 13 14 15 15 16 17 17 17 17 18 18 18
2 3 3 4 5 6 6 7 8 9 11 11 12 13 14 14 15 15 15 15 15 15 14 14 14 14 14 15 15 15 16 16 17 17 18 19 20 20 20 20 20 20 21
3 4 5 5 7 7 7 8 8 9 10 11 11 12 13 14 15 15 16 16 16 16 16 17 17 17 17 18 18 18 18 19 20 20 21 21 22 22 22 22 23 23 23
5 6 6 7 8 9 9 9 10 10 11 11 12 12 13 14 15 16 17 17 18 18 19 19 19 20 20 20 21 21 21 22 22 23 23 24 24 24 25 25 25 25 26
8 7 7 8 9 10 10 11 11 11 12 12 13 13 14 15 16 17 18 19 19 20 20 21 22 22 22 23 23 24 24 24 25 25 26 26 27 27 27 27 27 27 27
9 9 9 10 11 11 12 12 13 13 13 14 15 15 16 17 18 19 19 20 21 22 22 23 23 24 25 25 26 26 26 27 28 28 28 29 29 30 29 29 29 29 30
11 11 10 11 11 12 13 14 15 15 15 15 16 17 18 19 19 21 22 22 23 24 24 25 26 26 27 28 28 28 29 30 30 30 30 31 31 31 31 32 32 32 32
13 12 12 12 13 14 14 15 16 16 16 17 17 17 19 21 21 22 23 24 24 25 26 27 28 29 29 29 30 30 31 31 31 31 31 32 32 33 33 34 34 34 34
12 12 13 15 15 16 16 17 17 18 18 18 19 19 21 22 23 24 25 26 27 28 28 29 30 30 31 30 31 32 32 32 32 33 33 33 34 35 35 36 35 35 35
14 15 16 17 17 17 18 19 20 20 20 21 21 22 23 23 24 25 26 28 28 28 28 28 29 30 31 31 33 34 34 34 34 34 35 35 36 37 37 37 38 37 38
16 16 17 17 18 19 19 20 21 22 23 23 24 24 24 24 25 25 27 28 28 29 30 31 31 32 32 33 34 35 35 36 36 36 36 37 38 38 39 40 40 40 41
17 18 18 18 20 21 21 21 22 23 24 25 26 26 27 26 26 27 27 28 29 31 32 33 33 34 34 35 36 37 37 38 39 39 39 39 41 41 42 42 43 43 44
18 18 19 20 21 22 22 23 24 26 26 26 27 27 27 27 28 29 29 31 32 33 33 34 35 36 37 37 38 39 39 40 41 41 42 43 44 45 45 45 46 47 47
19 20 21 21 22 23 24 24 26 28 28 28 28 28 28 29 30 31 32 33 34 34 35 36 36 38 38 39 40 41 42 43 44 44 45 46 47 48 48 49 49 50 51
20 21 20 21 23 24 25 26 27 28 29 29 30 30 30 30 32 33 34 35 35 36 36 37 38 39 40 41 42 43 44 44 45 46 47 48 49 49 50 51 52 52 53
19 20 21 22 24 25 26 27 28 29 30 32 33 33 34 34 35 36 37 38 37 38 39 39 40 41 42 42 44 44 45 46 46 47 48 50 50 51 51 52 52 53 54
Wind_Direction
318 312 294 272 241 220 216 215 212 211 211 207 203 202 201 203 206 203 201 201 201 202 202 199 195 190 187 184 179 171 164 143 100 62 31 12 6 349 337 330 322 316 310
328 320 305 280 234 218 212 209 210 206 201 198 197 195 196 201 203 198 196 196 194 191 190 187 183 180 176 174 171 166 159 146 128 99 64 19 1 352 343 337 332 325 318
332 332 324 250 218 204 206 208 203 197 192 189 191 190 193 196 194 192 192 190 187 185 184 183 181 178 174 172 168 165 159 158 161 149 61 3 349 347 341 335 329 324 322
341 337 338 181 176 178 191 188 183 184 184 183 183 186 188 189 190 189 187 187 184 181 180 179 179 178 174 172 169 168 169 174 176 158 33 8 353 347 336 330 326 324 321
356 359 1 136 165 160 173 177 177 175 177 179 181 183 185 188 187 186 185 182 179 178 179 178 178 177 174 176 177 181 189 192 207 261 315 326 330 334 334 331 329 326 322
2 16 32 93 141 155 160 171 173 174 177 178 178 181 183 185 183 183 184 181 177 178 179 179 179 179 180 185 195 205 222 242 259 283 305 314 319 323 325 324 323 322 320
9 35 46 88 126 146 159 169 175 177 178 178 180 182 182 183 183 185 184 183 181 181 185 185 189 192 196 203 213 226 247 262 278 293 303 308 312 315 318 319 319 319 316
19 53 74 102 132 145 157 165 168 173 179 180 181 183 182 185 186 188 188 187 188 190 192 195 200 207 213 221 233 246 259 271 284 291 296 301 306 308 310 312 312 313 313
41 57 85 99 127 146 158 164 169 175 181 185 185 189 191 192 193 194 195 194 194 196 200 206 211 217 227 238 247 256 264 275 284 289 293 297 301 302 303 305 306 307 308
14 116 140 148 151 156 163 165 171 174 178 182 187 191 192 193 194 194 195 196 200 204 211 218 223 228 238 248 256 263 271 279 285 289 293 296 297 298 299 300 300 300 301
273 213 201 185 178 169 170 172 174 178 182 184 187 192 196 197 199 199 202 205 210 216 224 232 236 241 249 257 262 267 274 280 285 288 291 294 296 296 296 296 296 296 296
240 227 227 210 197 191 187 183 184 186 189 191 195 199 201 202 204 206 210 216 222 229 235 241 246 252 257 263 267 269 275 280 283 286 289 291 294 294 294 294 293 293 293
250 243 237 224 213 208 204 202 199 199 199 201 204 207 209 211 214 217 221 227 232 237 243 249 254 258 262 267 270 273 277 280 282 285 288 289 291 292 292 291 291 290 290
234 233 235 228 224 222 218 213 211 210 210 211 214 216 219 221 224 228 231 235 240 245 250 255 259 262 265 268 270 274 277 279 282 284 286 287 288 289 289 289 289 288 288
242 237 236 230 230 229 228 225 223 223 223 223 225 228 229 232 234 238 241 243 247 251 255 259 262 264 266 268 270 273 276 279 281 283 284 285 286 287 287 287 287 287 288
248 243 241 237 234 232 232 232 232 233 233 235 238 238 239 241 243 246 248 251 253 255 258 261 265 267 268 270 271 273 276 278 280 282 283 283 284 285 285 285 286 286 286
251 247 241 234 235 236 236 236 238 239 239 242 245 246 247 248 250 252 254 256 258 259 261 264 266 268 270 271 273 274 276 277 278 280 281 281 283 283 284 285 285 286 285
252 244 245 242 238 238 239 240 242 243 245 248 251 254 253 254 257 258 258 258 260 262 263 266 268 268 271 272 273 274 276 277 278 280 281 282 283 283 283 283 284 285 285
255 250 248 245 242 241 242 244 246 247 249 251 254 257 257 260 260 261 260 261 262 265 267 270 272 272 272 273 275 277 278 278 279 279 280 281 282 282 282 282 283 283 283
254 256 255 249 244 244 245 247 250 252 253 254 255 258 260 261 262 264 264 264 267 270 271 271 273 274 274 274 275 276 279 279 280 280 280 281 281 282 283 283 283 283 283
253 255 253 247 245 245 247 250 254 255 257 257 258 260 263 264 265 266 267 269 271 272 271 273 274 274 274 275 276 277 278 279 279 280 280 281 282 282 283 283 283 283 282
253 258 256 253 250 250 251 254 259 259 258 260 261 261 263 266 269 271 271 272 274 273 274 275 276 276 276 276 277 277 278 278 280 281 281 281 282 283 283 283 283 283 282
251 254 255 258 257 257 259 259 261 261 262 262 262 264 265 268 270 272 272 273 275 276 276 277 278 278 278 278 279 278 278 278 279 280 280 281 282 283 282 282 282 282 282
250 256 259 260 260 261 263 264 264 262 260 263 267 272 272 272 274 274 275 277 278 279 280 279 279 279 279 279 279 279 279 280 281 281 282 283 284 283 283 282 282 283 283
255 258 260 263 264 264 264 265 267 267 266 267 269 272 273 273 277 278 279 280 281 282 281 281 280 280 280 280 280 279 280 281 282 282 282 283 284 284 284 284 283 283 283
257 260 260 262 264 265 266 268 270 269 270 268 270 272 274 277 278 280 281 281 281 283 283 282 282 282 280 281 281 281 281 282 282 283 283 284 285 285 284 284 284 283 283